Showing default

EXPLORER 30, 1738

Orbit data source: Space-Track

EXPLORER 30, 1738 is a payload satellite owned by NRL (US) in LEO that was launched on Fri, 19 Nov 1965 UTC via an SCOUT X-4 launch vehicle from the Wallops Island (WLPIS). Payload-class satellites include a variety of spacecraft equipped with specific instruments for various scientific and technological missions. These include communications satellites like Starlink; space stations such as the ISS; scientific satellites like the Hubble; Earth observation satellites from companies like Planet Labs, Umbra, and HawkEye 360; GPS; miniature CubeSats for education and research; and military/defense satellites.

Loading next visibility...
Identifier
1738, 1965-093A
Orbit
LEO
Last TLE update
5 hours ago
Origin
Manufacturer
NRL
Mission
Civil Astronomy
Bus & Motor
NRL 24", Unknown motor
Mass
57 kg wet, 57 kg dry
Launch date (UTC)
1965-11-19 (59 years ago)
Launch vehicle
SCOUT X-4
Launch site
Wallops Island (WLPIS)
Object type
Payload
Rocket body
Debris
Shape & HBR
Sphere, 0.61 m
Radar Cross Section
0.292 m², Medium (>0.1 m² and < 1m²)

Expand to show TLE details & history

TLE from 5 hours ago
0 EXPLORER 30
1  1738U 65093A   25129.44931255  .00000133  00000-0  80454-4 0  9996
2  1738  59.7062 178.1883 0134360  29.0291 331.8132 14.41555916119054
Epoch: 2025-05-09T10:47Z
Definitive object data (Epoch: 2025-05-09T10:47:00.604Z)
Latitude
-0.00006°
Longitude
148.93045°
Altitude
670.707 km
Speed
7.567 km/s
True Right ascension
11h 52m 45s
True Declination
0° 00' 00"
Sunlit
Object was in full shadow at TLE epoch
Visualization TLE readout
Latitude
51.98277°
Longitude
-163.80973°
Altitude
682.728 km
Speed
7.562 km/s
Apparent Right ascension
13h 33m 09s
Apparent Declination
9° 38' 10"
Sunlit
Object is in daylight
Visualization observer readout
Local Sidereal Time
00:14:46
Azimuth
335.461° NNW
Elevation
-37.225°
Doppler factor
1
Orbital elements
Apogee altitude
848.445 km
Perigee altitude
656.827 km
Semi-major axis
7,130.773 km
Eccentricity
0.013436
Inclination
59.7062°
RAAN
178.1883°
Arg. of periapsis
29.0291°
True anomaly
331.07505°
Mean anomaly
331.8132°
Eccentric anomaly
331.44522°
Mean motion
3.60444 °/min
BSTAR
0.000080454
Orbital period
99.88 mins
Loading maneuver chart data...
Loading SW <> Apogee altitude chart data...
Loading historical data...
Loading historical data...
Loading historical data...
Loading historical data...
Loading historical data...
Loading historical data...
Loading historical data...
Other satellites on launch #93 in the year 1965 (1965-11-19 UTC)

EXPLORER 30 Visibility forecast

Observer location: undefined°, undefined°

Span
Click to sort rows by Start time (UTC) header in descending order
Start Az.
Max El. time (UTC)
Max El. Az.
Max El.
End time (UTC)
End Az.
8 mins2025-05-10 05:14:21.024Z212.168° SW2025-05-10 05:18:21.024Z120.624° SE44.315°2025-05-10 05:22:21.024Z42.688° NE
5 mins2025-05-10 07:00:21.024Z297.675° NW2025-05-10 07:02:21.024Z329.277° NNW18.255°2025-05-10 07:05:21.024Z10.394° NNE
7 mins2025-05-10 12:15:21.024Z347.842° N2025-05-10 12:18:21.024Z36.016° NE26.975°2025-05-10 12:22:21.024Z95.922° ESE
9 mins2025-05-10 13:58:21.024Z304.458° NW2025-05-10 14:02:21.024Z227.583° WSW36.544°2025-05-10 14:07:21.024Z163.633° S
|